Time,TemperatureF,DewpointF,PressureIn,WindDirection,WindDirectionDegrees,WindSpeedMPH,WindSpeedGustMPH,Humidity,HourlyPrecipIn,Conditions,Clouds,dailyrainin,SoftwareType,DateUTC
2013-03-20 00:00:00,27.7,16.0,30.06,WSW,248,3.0,7.2,61,0.00,,,0.00,WUHU216HW,2013-03-20 05:00:00,
2013-03-20 00:05:00,27.7,16.0,30.07,West,263,3.9,8.9,61,0.00,,,0.00,WUHU216HW,2013-03-20 05:05:00,
2013-03-20 00:10:00,27.5,15.8,30.06,West,266,3.1,11.0,61,0.00,,,0.00,WUHU216HW,2013-03-20 05:10:00,
2013-03-20 00:15:00,27.5,15.8,30.06,West,270,5.2,11.0,61,0.00,,,0.00,WUHU216HW,2013-03-20 05:15:00,
2013-03-20 00:20:00,27.4,15.7,30.06,West,270,7.1,10.7,61,0.00,,,0.00,WUHU216HW,2013-03-20 05:20:00,
2013-03-20 00:25:00,27.4,15.7,30.06,West,270,5.6,10.7,61,0.00,,,0.00,WUHU216HW,2013-03-20 05:25:00,
2013-03-20 00:30:00,27.2,15.8,30.05,West,274,3.1,7.2,62,0.00,,,0.00,WUHU216HW,2013-03-20 05:30:00,
2013-03-20 00:35:00,27.2,15.8,30.05,SSW,203,4.8,5.6,62,0.00,,,0.00,WUHU216HW,2013-03-20 05:35:00,
2013-03-20 00:40:00,27.2,15.8,30.05,West,261,7.3,10.0,62,0.00,,,0.00,WUHU216HW,2013-03-20 05:40:00,
2013-03-20 00:45:00,27.2,15.8,30.05,WNW,293,4.8,10.2,62,0.00,,,0.00,WUHU216HW,2013-03-20 05:45:00,
2013-03-20 00:50:00,27.2,15.8,30.05,West,264,4.6,10.2,62,0.00,,,0.00,WUHU216HW,2013-03-20 05:50:00,
2013-03-20 00:55:00,27.2,15.8,30.04,WNW,293,5.4,5.9,62,0.00,,,0.00,WUHU216HW,2013-03-20 05:55:00,
2013-03-20 01:00:00,27.4,15.7,30.04,West,259,3.8,8.9,61,0.00,,,0.00,WUHU216HW,2013-03-20 06:00:00,
2013-03-20 01:05:00,27.4,15.7,30.04,West,265,4.8,8.9,61,0.00,,,0.00,WUHU216HW,2013-03-20 06:05:00,
2013-03-20 01:10:00,27.4,15.7,30.04,West,273,4.1,5.6,61,0.00,,,0.00,WUHU216HW,2013-03-20 06:10:00,
2013-03-20 01:15:00,27.4,15.7,30.04,West,263,2.6,5.6,61,0.00,,,0.00,WUHU216HW,2013-03-20 06:15:00,
2013-03-20 01:20:00,27.4,16.0,30.04,WSW,248,2.2,5.6,62,0.00,,,0.00,WUHU216HW,2013-03-20 06:20:00,
2013-03-20 01:25:00,27.4,16.0,30.04,West,270,0.8,3.7,62,0.00,,,0.00,WUHU216HW,2013-03-20 06:25:00,
2013-03-20 01:30:00,27.4,16.0,30.05,SW,225,2.4,4.8,62,0.00,,,0.00,WUHU216HW,2013-03-20 06:30:00,
2013-03-20 01:35:00,27.4,16.0,30.05,WNW,293,4.3,4.8,62,0.00,,,0.00,WUHU216HW,2013-03-20 06:35:00,
2013-03-20 01:40:00,27.2,15.8,30.05,West,274,5.6,8.3,62,0.00,,,0.00,WUHU216HW,2013-03-20 06:40:00,
2013-03-20 01:45:00,27.2,15.8,30.04,West,267,4.2,8.3,62,0.00,,,0.00,WUHU216HW,2013-03-20 06:45:00,
2013-03-20 01:50:00,27.2,15.8,30.04,West,270,5.9,7.2,62,0.00,,,0.00,WUHU216HW,2013-03-20 06:50:00,
2013-03-20 01:55:00,27.2,15.8,30.04,WSW,248,11.5,11.5,62,0.00,,,0.00,WUHU216HW,2013-03-20 06:55:00,
2013-03-20 02:00:00,27.0,15.7,30.05,West,265,4.8,11.5,62,0.00,,,0.00,WUHU216HW,2013-03-20 07:00:00,
2013-03-20 02:05:00,27.0,15.3,30.05,West,270,9.7,11.5,61,0.00,,,0.00,WUHU216HW,2013-03-20 07:05:00,
2013-03-20 02:10:00,27.0,15.3,30.05,West,269,7.4,12.8,61,0.00,,,0.00,WUHU216HW,2013-03-20 07:10:00,
2013-03-20 02:15:00,27.0,15.3,30.05,West,260,1.9,12.8,61,0.00,,,0.00,WUHU216HW,2013-03-20 07:15:00,
2013-03-20 02:20:00,27.0,15.7,30.05,WNW,293,1.3,7.0,62,0.00,,,0.00,WUHU216HW,2013-03-20 07:20:00,
2013-03-20 02:25:00,27.0,15.7,30.05,WNW,293,4.8,7.0,62,0.00,,,0.00,WUHU216HW,2013-03-20 07:25:00,
2013-03-20 02:30:00,27.0,15.3,30.04,West,270,3.5,5.9,61,0.00,,,0.00,WUHU216HW,2013-03-20 07:30:00,
2013-03-20 02:35:00,27.0,15.3,30.04,WSW,248,4.8,6.5,61,0.00,,,0.00,WUHU216HW,2013-03-20 07:35:00,
2013-03-20 02:40:00,26.8,15.1,30.04,West,266,4.9,8.0,61,0.00,,,0.00,WUHU216HW,2013-03-20 07:40:00,
2013-03-20 02:45:00,26.6,14.6,30.03,WSW,248,4.1,8.0,60,0.00,,,0.00,WUHU216HW,2013-03-20 07:45:00,
2013-03-20 02:50:00,26.6,14.6,30.04,West,270,4.8,7.6,60,0.00,,,0.00,WUHU216HW,2013-03-20 07:50:00,
2013-03-20 02:55:00,26.5,14.4,30.04,WNW,293,3.5,7.6,60,0.00,,,0.00,WUHU216HW,2013-03-20 07:55:00,
2013-03-20 03:00:00,26.5,14.4,30.04,WSW,248,1.8,6.5,60,0.00,,,0.00,WUHU216HW,2013-03-20 08:00:00,
2013-03-20 03:05:00,26.3,14.2,30.04,West,270,8.3,8.3,60,0.00,,,0.00,WUHU216HW,2013-03-20 08:05:00,
2013-03-20 03:10:00,26.1,12.9,30.03,West,264,6.8,8.9,57,0.00,,,0.00,WUHU216HW,2013-03-20 08:10:00,
2013-03-20 03:15:00,25.9,11.9,30.03,West,262,9.6,11.5,55,0.00,,,0.00,WUHU216HW,2013-03-20 08:15:00,
2013-03-20 03:20:00,25.6,12.0,30.03,West,279,5.8,11.5,56,0.00,,,0.00,WUHU216HW,2013-03-20 08:20:00,
2013-03-20 03:25:00,25.6,12.0,30.03,WNW,285,4.1,9.4,56,0.00,,,0.00,WUHU216HW,2013-03-20 08:25:00,
2013-03-20 03:30:00,25.2,12.1,30.03,WSW,256,5.1,7.2,57,0.00,,,0.00,WUHU216HW,2013-03-20 08:30:00,
2013-03-20 03:35:00,25.2,12.1,30.03,SSE,158,4.8,7.0,57,0.00,,,0.00,WUHU216HW,2013-03-20 08:35:00,
2013-03-20 03:40:00,24.8,11.7,30.03,West,270,4.8,9.7,57,0.00,,,0.00,WUHU216HW,2013-03-20 08:40:00,
2013-03-20 03:45:00,24.8,11.7,30.03,West,270,5.8,9.7,57,0.00,,,0.00,WUHU216HW,2013-03-20 08:45:00,
2013-03-20 03:50:00,24.7,11.5,30.03,WSW,248,3.0,7.2,57,0.00,,,0.00,WUHU216HW,2013-03-20 08:50:00,
2013-03-20 03:55:00,24.5,11.8,30.03,West,264,3.3,6.7,58,0.00,,,0.00,WUHU216HW,2013-03-20 08:55:00,
2013-03-20 04:00:00,24.3,11.6,30.03,WNW,293,6.7,7.6,58,0.00,,,0.00,WUHU216HW,2013-03-20 09:00:00,
2013-03-20 04:05:00,24.1,11.4,30.03,West,270,7.6,7.6,58,0.00,,,0.00,WUHU216HW,2013-03-20 09:05:00,
2013-03-20 04:10:00,24.1,11.4,30.03,West,271,3.0,9.1,58,0.00,,,0.00,WUHU216HW,2013-03-20 09:10:00,
2013-03-20 04:15:00,23.9,11.3,30.02,West,263,3.3,9.1,58,0.00,,,0.00,WUHU216HW,2013-03-20 09:15:00,
2013-03-20 04:20:00,23.8,10.7,30.02,WNW,286,5.9,8.6,57,0.00,,,0.00,WUHU216HW,2013-03-20 09:20:00,
2013-03-20 04:25:00,23.6,10.5,30.02,West,270,4.1,10.4,57,0.00,,,0.00,WUHU216HW,2013-03-20 09:25:00,
2013-03-20 04:30:00,23.4,10.4,30.03,West,269,3.5,10.4,57,0.00,,,0.00,WUHU216HW,2013-03-20 09:30:00,
2013-03-20 04:35:00,23.4,10.4,30.02,WSW,248,7.0,9.1,57,0.00,,,0.00,WUHU216HW,2013-03-20 09:35:00,
2013-03-20 04:40:00,23.2,10.2,30.02,West,280,4.0,8.9,57,0.00,,,0.00,WUHU216HW,2013-03-20 09:40:00,
2013-03-20 04:45:00,23.0,10.0,30.03,West,270,4.3,8.6,57,0.00,,,0.00,WUHU216HW,2013-03-20 09:45:00,
2013-03-20 04:50:00,22.9,9.5,30.02,WSW,248,6.5,9.1,56,0.00,,,0.00,WUHU216HW,2013-03-20 09:50:00,
2013-03-20 04:55:00,22.7,9.3,30.02,WSW,253,5.6,9.1,56,0.00,,,0.00,WUHU216HW,2013-03-20 09:55:00,
2013-03-20 05:00:00,22.5,9.1,30.02,West,270,7.6,8.3,56,0.00,,,0.00,WUHU216HW,2013-03-20 10:00:00,
2013-03-20 05:05:00,22.3,8.9,30.03,WNW,282,5.7,8.3,56,0.00,,,0.00,WUHU216HW,2013-03-20 10:05:00,
2013-03-20 05:10:00,22.1,8.7,30.03,West,273,3.3,11.3,56,0.00,,,0.00,WUHU216HW,2013-03-20 10:10:00,
2013-03-20 05:15:00,22.1,9.1,30.03,WNW,297,2.5,11.3,57,0.00,,,0.00,WUHU216HW,2013-03-20 10:15:00,
2013-03-20 05:20:00,22.0,9.0,30.03,West,270,4.6,7.6,57,0.00,,,0.00,WUHU216HW,2013-03-20 10:20:00,
2013-03-20 05:25:00,22.0,9.0,30.03,West,270,6.1,7.6,57,0.00,,,0.00,WUHU216HW,2013-03-20 10:25:00,
2013-03-20 05:30:00,22.0,9.4,30.03,West,269,3.6,6.1,58,0.00,,,0.00,WUHU216HW,2013-03-20 10:30:00,
2013-03-20 05:35:00,21.6,9.0,30.03,West,273,5.7,7.0,58,0.00,,,0.00,WUHU216HW,2013-03-20 10:35:00,
2013-03-20 05:40:00,21.6,9.5,30.04,West,272,4.8,7.0,59,0.00,,,0.00,WUHU216HW,2013-03-20 10:40:00,
2013-03-20 05:49:00,21.4,9.3,30.04,West,270,3.0,6.1,59,0.00,,,0.00,WUHU216HW,2013-03-20 10:49:00,
2013-03-20 05:54:00,21.2,9.1,30.04,West,259,3.8,4.8,59,0.00,,,0.00,WUHU216HW,2013-03-20 10:54:00,
2013-03-20 05:59:00,21.2,9.5,30.04,WNW,293,3.7,4.8,60,0.00,,,0.00,WUHU216HW,2013-03-20 10:59:00,
2013-03-20 06:04:00,21.1,9.4,30.04,West,270,3.7,6.5,60,0.00,,,0.00,WUHU216HW,2013-03-20 11:04:00,
2013-03-20 06:09:00,20.9,9.6,30.04,West,264,2.4,6.5,61,0.00,,,0.00,WUHU216HW,2013-03-20 11:09:00,
2013-03-20 06:14:00,20.7,9.4,30.04,West,270,2.2,5.6,61,0.00,,,0.00,WUHU216HW,2013-03-20 11:14:00,
2013-03-20 06:19:00,20.7,9.4,30.05,West,276,4.0,6.1,61,0.00,,,0.00,WUHU216HW,2013-03-20 11:19:00,
2013-03-20 06:24:00,20.7,9.4,30.05,West,280,2.6,6.5,61,0.00,,,0.00,WUHU216HW,2013-03-20 11:24:00,
2013-03-20 06:29:00,20.7,9.4,30.05,WNW,293,5.6,6.5,61,0.00,,,0.00,WUHU216HW,2013-03-20 11:29:00,
2013-03-20 06:34:00,20.5,9.6,30.06,West,269,4.4,5.9,62,0.00,,,0.00,WUHU216HW,2013-03-20 11:34:00,
2013-03-20 06:39:00,20.3,9.4,30.06,WNW,297,2.4,5.9,62,0.00,,,0.00,WUHU216HW,2013-03-20 11:39:00,
2013-03-20 06:44:00,20.3,9.4,30.05,WNW,293,4.8,6.5,62,0.00,,,0.00,WUHU216HW,2013-03-20 11:44:00,
2013-03-20 06:49:00,20.2,9.2,30.06,WNW,296,3.6,6.5,62,0.00,,,0.00,WUHU216HW,2013-03-20 11:49:00,
2013-03-20 06:54:00,20.2,9.2,30.06,West,267,2.7,6.5,62,0.00,,,0.00,WUHU216HW,2013-03-20 11:54:00,
2013-03-20 06:59:00,20.0,9.0,30.06,WNW,293,4.8,6.5,62,0.00,,,0.00,WUHU216HW,2013-03-20 11:59:00,
2013-03-20 07:04:00,19.8,8.8,30.06,West,270,3.7,6.5,62,0.00,,,0.00,WUHU216HW,2013-03-20 12:04:00,
2013-03-20 07:09:00,19.8,9.1,30.06,West,274,2.9,6.7,63,0.00,,,0.00,WUHU216HW,2013-03-20 12:09:00,
2013-03-20 07:14:00,19.8,9.1,30.06,WSW,248,5.4,6.7,63,0.00,,,0.00,WUHU216HW,2013-03-20 12:14:00,
2013-03-20 07:19:00,19.8,9.1,30.07,NW,315,2.2,6.7,63,0.00,,,0.00,WUHU216HW,2013-03-20 12:19:00,
2013-03-20 07:24:00,19.8,9.1,30.07,West,278,5.8,7.0,63,0.00,,,0.00,WUHU216HW,2013-03-20 12:24:00,
2013-03-20 07:29:00,19.6,8.9,30.07,WSW,246,2.0,7.6,63,0.00,,,0.00,WUHU216HW,2013-03-20 12:29:00,
2013-03-20 07:34:00,19.6,8.9,30.07,WSW,248,3.2,9.7,63,0.00,,,0.00,WUHU216HW,2013-03-20 12:34:00,
2013-03-20 07:39:00,19.6,8.7,30.07,West,266,6.3,10.0,62,0.00,,,0.00,WUHU216HW,2013-03-20 12:39:00,
2013-03-20 07:44:00,19.6,8.7,30.07,WNW,297,3.6,10.0,62,0.00,,,0.00,WUHU216HW,2013-03-20 12:44:00,
2013-03-20 07:49:00,19.6,8.7,30.07,WNW,293,4.3,7.8,62,0.00,,,0.00,WUHU216HW,2013-03-20 12:49:00,
2013-03-20 07:54:00,19.6,7.9,30.07,West,270,6.7,12.4,60,0.00,,,0.00,WUHU216HW,2013-03-20 12:54:00,
2013-03-20 07:59:00,19.4,7.7,30.07,WSW,256,7.2,13.2,60,0.00,,,0.00,WUHU216HW,2013-03-20 12:59:00,
2013-03-20 08:04:00,19.8,8.1,30.07,West,270,6.5,13.2,60,0.00,,,0.00,WUHU216HW,2013-03-20 13:04:00,
2013-03-20 08:09:00,20.0,8.3,30.07,WNW,293,4.8,9.1,60,0.00,,,0.00,WUHU216HW,2013-03-20 13:09:00,
2013-03-20 08:14:00,20.0,8.3,30.07,West,264,5.9,10.4,60,0.00,,,0.00,WUHU216HW,2013-03-20 13:14:00,
2013-03-20 08:19:00,20.2,9.2,30.07,SW,225,4.1,10.4,62,0.00,,,0.00,WUHU216HW,2013-03-20 13:19:00,
2013-03-20 08:24:00,20.5,9.6,30.07,WSW,252,1.7,7.2,62,0.00,,,0.00,WUHU216HW,2013-03-20 13:24:00,
2013-03-20 08:29:00,20.5,8.8,30.07,West,270,5.9,8.3,60,0.00,,,0.00,WUHU216HW,2013-03-20 13:29:00,
2013-03-20 08:34:00,20.2,8.5,30.07,WNW,293,5.4,13.2,60,0.00,,,0.00,WUHU216HW,2013-03-20 13:34:00,
2013-03-20 08:39:00,20.2,8.1,30.07,WNW,293,10.2,13.2,59,0.00,,,0.00,WUHU216HW,2013-03-20 13:39:00,
2013-03-20 08:44:00,20.0,7.9,30.07,West,272,7.0,11.8,59,0.00,,,0.00,WUHU216HW,2013-03-20 13:44:00,
2013-03-20 08:49:00,20.2,8.5,30.07,WSW,243,6.2,14.5,60,0.00,,,0.00,WUHU216HW,2013-03-20 13:49:00,
2013-03-20 08:54:00,20.3,8.6,30.07,WNW,288,7.8,14.5,60,0.00,,,0.00,WUHU216HW,2013-03-20 13:54:00,
2013-03-20 08:59:00,20.2,8.5,30.07,WNW,282,4.4,11.0,60,0.00,,,0.00,WUHU216HW,2013-03-20 13:59:00,
2013-03-20 09:04:00,20.3,8.6,30.07,SW,225,4.3,8.9,60,0.00,,,0.00,WUHU216HW,2013-03-20 14:04:00,
2013-03-20 09:09:00,20.5,8.0,30.07,WNW,293,4.8,10.7,58,0.00,,,0.00,WUHU216HW,2013-03-20 14:09:00,
2013-03-20 09:14:00,20.5,8.0,30.08,WNW,293,5.2,10.7,58,0.00,,,0.00,WUHU216HW,2013-03-20 14:14:00,
2013-03-20 09:19:00,20.9,7.9,30.07,WNW,293,4.1,10.4,57,0.00,,,0.00,WUHU216HW,2013-03-20 14:19:00,
2013-03-20 09:24:00,20.9,7.6,30.07,WNW,293,7.2,10.2,56,0.00,,,0.00,WUHU216HW,2013-03-20 14:24:00,
2013-03-20 09:29:00,20.7,7.4,30.07,West,272,5.2,10.2,56,0.00,,,0.00,WUHU216HW,2013-03-20 14:29:00,
2013-03-20 09:34:00,20.9,7.9,30.07,West,277,6.5,11.3,57,0.00,,,0.00,WUHU216HW,2013-03-20 14:34:00,
2013-03-20 09:39:00,21.4,8.5,30.07,West,270,4.8,11.3,57,0.00,,,0.00,WUHU216HW,2013-03-20 14:39:00,
2013-03-20 09:44:00,21.2,7.9,30.07,WSW,248,10.4,11.3,56,0.00,,,0.00,WUHU216HW,2013-03-20 14:44:00,
2013-03-20 09:49:00,21.4,8.5,30.07,WSW,255,4.1,11.3,57,0.00,,,0.00,WUHU216HW,2013-03-20 14:49:00,
2013-03-20 09:54:00,22.0,8.2,30.07,West,270,9.1,10.4,55,0.00,,,0.00,WUHU216HW,2013-03-20 14:54:00,
2013-03-20 09:59:00,21.6,7.8,30.07,West,270,8.9,9.4,55,0.00,,,0.00,WUHU216HW,2013-03-20 14:59:00,
2013-03-20 10:04:00,21.8,8.4,30.07,WNW,293,5.4,11.3,56,0.00,,,0.00,WUHU216HW,2013-03-20 15:04:00,
2013-03-20 10:09:00,22.3,8.5,30.07,West,259,4.6,11.3,55,0.00,,,0.00,WUHU216HW,2013-03-20 15:09:00,
2013-03-20 10:14:00,22.9,8.7,30.07,WSW,248,5.6,7.6,54,0.00,,,0.00,WUHU216HW,2013-03-20 15:14:00,
2013-03-20 10:19:00,22.7,7.2,30.07,WSW,248,13.7,13.7,51,0.00,,,0.00,WUHU216HW,2013-03-20 15:19:00,
2013-03-20 10:24:00,22.9,8.2,30.07,WSW,253,4.7,13.7,53,0.00,,,0.00,WUHU216HW,2013-03-20 15:24:00,
2013-03-20 10:29:00,23.4,8.3,30.07,WSW,248,3.7,13.7,52,0.00,,,0.00,WUHU216HW,2013-03-20 15:29:00,
2013-03-20 10:34:00,23.2,7.7,30.07,West,272,7.7,12.6,51,0.00,,,0.00,WUHU216HW,2013-03-20 15:34:00,
2013-03-20 10:39:00,23.4,7.6,30.07,WNW,290,6.9,12.6,50,0.00,,,0.00,WUHU216HW,2013-03-20 15:39:00,
2013-03-20 10:44:00,23.6,8.5,30.07,West,270,7.2,12.4,52,0.00,,,0.00,WUHU216HW,2013-03-20 15:44:00,
2013-03-20 10:49:00,24.1,8.6,30.07,WSW,244,3.3,12.4,51,0.00,,,0.00,WUHU216HW,2013-03-20 15:49:00,
2013-03-20 10:54:00,24.1,7.7,30.07,NW,315,5.6,11.0,49,0.00,,,0.00,WUHU216HW,2013-03-20 15:54:00,
2013-03-20 10:59:00,23.8,6.8,30.07,West,275,7.3,13.7,48,0.00,,,0.00,WUHU216HW,2013-03-20 15:59:00,
2013-03-20 11:04:00,23.8,6.8,30.07,NW,325,3.6,13.7,48,0.00,,,0.00,WUHU216HW,2013-03-20 16:04:00,
2013-03-20 11:09:00,24.5,7.6,30.07,NW,308,5.6,11.0,48,0.00,,,0.00,WUHU216HW,2013-03-20 16:09:00,
2013-03-20 11:14:00,24.5,7.0,30.07,West,270,12.6,12.6,47,0.00,,,0.00,WUHU216HW,2013-03-20 16:14:00,
2013-03-20 11:19:00,24.3,7.4,30.07,West,267,7.7,13.4,48,0.00,,,0.00,WUHU216HW,2013-03-20 16:19:00,
2013-03-20 11:24:00,24.7,7.7,30.07,WNW,293,7.6,13.7,48,0.00,,,0.00,WUHU216HW,2013-03-20 16:24:00,
2013-03-20 11:29:00,24.8,7.4,30.07,NNW,338,5.6,13.7,47,0.00,,,0.00,WUHU216HW,2013-03-20 16:29:00,
2013-03-20 11:34:00,24.8,7.4,30.07,WNW,293,4.8,8.6,47,0.00,,,0.00,WUHU216HW,2013-03-20 16:34:00,
2013-03-20 11:39:00,25.2,7.7,30.07,West,265,10.1,16.1,47,0.00,,,0.00,WUHU216HW,2013-03-20 16:39:00,
2013-03-20 11:44:00,25.9,8.4,30.07,West,270,10.2,16.1,47,0.00,,,0.00,WUHU216HW,2013-03-20 16:44:00,
2013-03-20 11:49:00,25.7,7.7,30.07,West,277,6.8,11.8,46,0.00,,,0.00,WUHU216HW,2013-03-20 16:49:00,
2013-03-20 11:54:00,25.6,7.6,30.07,WSW,248,9.1,12.4,46,0.00,,,0.00,WUHU216HW,2013-03-20 16:54:00,
2013-03-20 11:59:00,25.7,8.2,30.07,West,270,5.9,12.4,47,0.00,,,0.00,WUHU216HW,2013-03-20 16:59:00,
2013-03-20 12:04:00,26.3,8.2,30.07,West,261,5.5,9.7,46,0.00,,,0.00,WUHU216HW,2013-03-20 17:04:00,
2013-03-20 12:09:00,26.6,9.0,30.07,WNW,298,5.3,7.8,47,0.00,,,0.00,WUHU216HW,2013-03-20 17:09:00,
2013-03-20 12:14:00,26.6,9.0,30.07,West,275,3.5,7.6,47,0.00,,,0.00,WUHU216HW,2013-03-20 17:14:00,
2013-03-20 12:19:00,26.8,8.6,30.07,North,0,4.8,7.6,46,0.00,,,0.00,WUHU216HW,2013-03-20 17:19:00,
2013-03-20 12:24:00,26.6,9.0,30.07,NNW,338,5.4,7.6,47,0.00,,,0.00,WUHU216HW,2013-03-20 17:24:00,
2013-03-20 12:29:00,27.0,9.8,30.06,NNW,338,3.5,5.4,48,0.00,,,0.00,WUHU216HW,2013-03-20 17:29:00,
2013-03-20 12:34:00,27.0,8.4,30.06,NW,317,8.7,11.0,45,0.00,,,0.00,WUHU216HW,2013-03-20 17:34:00,
2013-03-20 12:39:00,26.5,8.4,30.06,NNW,338,4.3,11.0,46,0.00,,,0.00,WUHU216HW,2013-03-20 17:39:00,
2013-03-20 12:44:00,26.8,8.2,30.06,WNW,298,3.0,8.6,45,0.00,,,0.00,WUHU216HW,2013-03-20 17:44:00,
2013-03-20 12:49:00,26.8,7.7,30.06,West,270,7.6,11.3,44,0.00,,,0.00,WUHU216HW,2013-03-20 17:49:00,
2013-03-20 12:54:00,27.0,7.8,30.06,West,270,7.6,11.3,44,0.00,,,0.00,WUHU216HW,2013-03-20 17:54:00,
2013-03-20 12:59:00,27.5,9.4,30.06,West,277,6.1,10.2,46,0.00,,,0.00,WUHU216HW,2013-03-20 17:59:00,
2013-03-20 13:04:00,28.1,9.9,30.06,North,0,3.5,9.7,46,0.00,,,0.00,WUHU216HW,2013-03-20 18:04:00,
2013-03-20 13:09:00,27.7,9.0,30.05,NW,304,4.8,9.7,45,0.00,,,0.00,WUHU216HW,2013-03-20 18:09:00,
2013-03-20 13:14:00,27.5,8.9,30.06,West,274,6.2,8.3,45,0.00,,,0.00,WUHU216HW,2013-03-20 18:14:00,
2013-03-20 13:19:00,27.9,8.7,30.05,SW,225,10.2,11.8,44,0.00,,,0.00,WUHU216HW,2013-03-20 18:19:00,
2013-03-20 13:24:00,28.1,9.4,30.05,West,268,1.7,11.8,45,0.00,,,0.00,WUHU216HW,2013-03-20 18:24:00,
2013-03-20 13:29:00,28.8,9.5,30.05,WSW,248,3.7,10.2,44,0.00,,,0.00,WUHU216HW,2013-03-20 18:29:00,
2013-03-20 13:34:00,28.3,9.1,30.05,West,277,3.8,8.6,44,0.00,,,0.00,WUHU216HW,2013-03-20 18:34:00,
2013-03-20 13:39:00,28.3,9.1,30.05,West,270,5.6,8.3,44,0.00,,,0.00,WUHU216HW,2013-03-20 18:39:00,
2013-03-20 13:44:00,28.1,9.4,30.05,West,270,5.6,8.3,45,0.00,,,0.00,WUHU216HW,2013-03-20 18:44:00,
2013-03-20 13:49:00,28.3,9.5,30.05,West,264,6.2,9.7,45,0.00,,,0.00,WUHU216HW,2013-03-20 18:49:00,
2013-03-20 13:54:00,28.4,9.2,30.04,WNW,295,3.7,9.7,44,0.00,,,0.00,WUHU216HW,2013-03-20 18:54:00,
2013-03-20 13:59:00,27.7,8.6,30.04,NW,315,5.9,9.4,44,0.00,,,0.00,WUHU216HW,2013-03-20 18:59:00,
2013-03-20 14:04:00,27.5,9.4,30.04,NW,315,3.7,9.4,46,0.00,,,0.00,WUHU216HW,2013-03-20 19:04:00,
2013-03-20 14:09:00,27.9,9.7,30.04,West,269,3.6,8.9,46,0.00,,,0.00,WUHU216HW,2013-03-20 19:09:00,
2013-03-20 14:14:00,28.4,10.3,30.03,WSW,248,2.2,5.6,46,0.00,,,0.00,WUHU216HW,2013-03-20 19:14:00,
2013-03-20 14:19:00,29.2,10.9,30.03,WNW,288,4.0,11.0,46,0.00,,,0.00,WUHU216HW,2013-03-20 19:19:00,
2013-03-20 14:24:00,29.5,10.2,30.03,WSW,248,10.2,11.0,44,0.00,,,0.00,WUHU216HW,2013-03-20 19:24:00,
2013-03-20 14:29:00,29.3,10.5,30.03,West,270,9.1,12.8,45,0.00,,,0.00,WUHU216HW,2013-03-20 19:29:00,
2013-03-20 14:34:00,29.5,10.2,30.03,West,270,8.6,12.8,44,0.00,,,0.00,WUHU216HW,2013-03-20 19:34:00,
2013-03-20 14:39:00,28.4,8.7,30.03,WNW,293,8.0,11.8,43,0.00,,,0.00,WUHU216HW,2013-03-20 19:39:00,
2013-03-20 14:44:00,28.6,10.4,30.02,WSW,244,4.7,8.9,46,0.00,,,0.00,WUHU216HW,2013-03-20 19:44:00,
2013-03-20 14:49:00,29.7,11.3,30.02,WSW,250,2.5,8.6,46,0.00,,,0.00,WUHU216HW,2013-03-20 19:49:00,
2013-03-20 14:54:00,30.1,11.2,30.02,West,270,11.3,11.3,45,0.00,,,0.00,WUHU216HW,2013-03-20 19:54:00,
2013-03-20 14:59:00,29.2,9.4,30.02,WNW,293,4.6,11.3,43,0.00,,,0.00,WUHU216HW,2013-03-20 19:59:00,
2013-03-20 15:04:00,27.9,8.2,30.02,NW,310,5.8,10.2,43,0.00,,,0.00,WUHU216HW,2013-03-20 20:04:00,
2013-03-20 15:09:00,28.4,10.3,30.02,West,270,10.2,10.2,46,0.00,,,0.00,WUHU216HW,2013-03-20 20:09:00,
2013-03-20 15:14:00,29.5,11.7,30.02,West,270,3.2,11.0,47,0.00,,,0.00,WUHU216HW,2013-03-20 20:14:00,
2013-03-20 15:19:00,30.1,10.7,30.02,NNE,23,7.6,13.4,44,0.00,,,0.00,WUHU216HW,2013-03-20 20:19:00,
2013-03-20 15:24:00,30.2,10.4,30.02,West,259,8.9,14.5,43,0.00,,,0.00,WUHU216HW,2013-03-20 20:24:00,
2013-03-20 15:29:00,29.7,9.8,30.02,WNW,293,9.1,14.5,43,0.00,,,0.00,WUHU216HW,2013-03-20 20:29:00,
2013-03-20 15:34:00,29.2,9.4,30.02,West,270,7.8,18.0,43,0.00,,,0.00,WUHU216HW,2013-03-20 20:34:00,
2013-03-20 15:39:00,28.3,8.6,30.02,West,270,11.5,18.0,43,0.00,,,0.00,WUHU216HW,2013-03-20 20:39:00,
2013-03-20 15:44:00,27.7,9.0,30.02,North,0,6.1,12.4,45,0.00,,,0.00,WUHU216HW,2013-03-20 20:44:00,
2013-03-20 15:49:00,27.5,9.4,30.02,WNW,293,5.2,12.4,46,0.00,,,0.00,WUHU216HW,2013-03-20 20:49:00,
2013-03-20 15:54:00,27.7,9.6,30.02,West,270,4.6,7.8,46,0.00,,,0.00,WUHU216HW,2013-03-20 20:54:00,
2013-03-20 15:59:00,27.4,9.7,30.02,NNW,338,2.2,7.8,47,0.00,,,0.00,WUHU216HW,2013-03-20 20:59:00,
2013-03-20 16:04:00,27.0,9.4,30.02,West,267,5.0,8.3,47,0.00,,,0.00,WUHU216HW,2013-03-20 21:04:00,
2013-03-20 16:09:00,26.8,8.6,30.02,WNW,293,5.6,8.6,46,0.00,,,0.00,WUHU216HW,2013-03-20 21:09:00,
2013-03-20 16:14:00,26.3,9.2,30.02,WSW,248,4.8,8.6,48,0.00,,,0.00,WUHU216HW,2013-03-20 21:14:00,
2013-03-20 16:19:00,26.3,8.6,30.02,West,266,5.5,7.2,47,0.00,,,0.00,WUHU216HW,2013-03-20 21:19:00,
2013-03-20 16:24:00,26.6,9.0,30.02,West,276,5.5,10.0,47,0.00,,,0.00,WUHU216HW,2013-03-20 21:24:00,
2013-03-20 16:29:00,27.0,9.4,30.02,WNW,293,6.7,10.4,47,0.00,,,0.00,WUHU216HW,2013-03-20 21:29:00,
2013-03-20 16:34:00,27.0,9.4,30.02,West,271,4.9,10.4,47,0.00,,,0.00,WUHU216HW,2013-03-20 21:34:00,
2013-03-20 16:39:00,27.0,9.4,30.02,West,272,5.9,9.4,47,0.00,,,0.00,WUHU216HW,2013-03-20 21:39:00,
2013-03-20 16:44:00,27.0,9.4,30.02,WSW,248,7.6,9.4,47,0.00,,,0.00,WUHU216HW,2013-03-20 21:44:00,
2013-03-20 16:49:00,26.5,9.3,30.02,WSW,247,7.2,13.2,48,0.00,,,0.00,WUHU216HW,2013-03-20 21:49:00,
2013-03-20 16:54:00,26.3,9.2,30.02,West,276,4.6,13.2,48,0.00,,,0.00,WUHU216HW,2013-03-20 21:54:00,
2013-03-20 16:59:00,26.5,9.8,30.02,West,278,7.0,9.4,49,0.00,,,0.00,WUHU216HW,2013-03-20 21:59:00,
2013-03-20 17:04:00,26.3,9.2,30.02,West,276,4.3,9.4,48,0.00,,,0.00,WUHU216HW,2013-03-20 22:04:00,
2013-03-20 17:09:00,26.5,9.8,30.02,WSW,248,9.4,9.4,49,0.00,,,0.00,WUHU216HW,2013-03-20 22:09:00,
2013-03-20 17:14:00,26.3,9.2,30.02,West,261,6.4,12.6,48,0.00,,,0.00,WUHU216HW,2013-03-20 22:14:00,
2013-03-20 17:19:00,26.3,9.6,30.02,West,270,5.9,12.6,49,0.00,,,0.00,WUHU216HW,2013-03-20 22:19:00,
2013-03-20 17:24:00,25.9,9.3,30.02,WSW,256,5.1,7.8,49,0.00,,,0.00,WUHU216HW,2013-03-20 22:24:00,
2013-03-20 17:29:00,25.7,9.2,30.02,West,268,7.8,9.1,49,0.00,,,0.00,WUHU216HW,2013-03-20 22:29:00,
2013-03-20 17:34:00,25.6,9.0,30.03,West,267,3.1,9.1,49,0.00,,,0.00,WUHU216HW,2013-03-20 22:34:00,
2013-03-20 17:39:00,25.2,9.2,30.03,West,270,8.0,9.4,50,0.00,,,0.00,WUHU216HW,2013-03-20 22:39:00,
2013-03-20 17:44:00,25.2,9.5,30.03,WSW,258,4.2,9.4,51,0.00,,,0.00,WUHU216HW,2013-03-20 22:44:00,
2013-03-20 17:49:00,25.0,9.0,30.03,WNW,293,11.8,11.8,50,0.00,,,0.00,WUHU216HW,2013-03-20 22:49:00,
2013-03-20 17:54:00,24.8,9.3,30.03,West,270,10.2,14.3,51,0.00,,,0.00,WUHU216HW,2013-03-20 22:54:00,
2013-03-20 17:59:00,24.8,9.6,30.03,West,270,4.3,14.3,52,0.00,,,0.00,WUHU216HW,2013-03-20 22:59:00,
2013-03-20 18:04:00,24.7,9.1,30.03,West,277,7.2,11.3,51,0.00,,,0.00,WUHU216HW,2013-03-20 23:04:00,
2013-03-20 18:09:00,24.5,9.7,30.03,West,270,10.4,11.3,53,0.00,,,0.00,WUHU216HW,2013-03-20 23:09:00,
2013-03-20 18:14:00,24.3,9.2,30.03,West,266,6.4,11.5,52,0.00,,,0.00,WUHU216HW,2013-03-20 23:14:00,
2013-03-20 18:19:00,24.3,9.2,30.03,WNW,284,3.3,11.8,52,0.00,,,0.00,WUHU216HW,2013-03-20 23:19:00,
2013-03-20 18:24:00,24.3,9.2,30.03,WNW,302,4.0,11.8,52,0.00,,,0.00,WUHU216HW,2013-03-20 23:24:00,
2013-03-20 18:29:00,24.3,9.2,30.03,West,272,4.8,8.9,52,0.00,,,0.00,WUHU216HW,2013-03-20 23:29:00,
2013-03-20 18:34:00,24.3,9.5,30.03,WNW,297,4.4,7.8,53,0.00,,,0.00,WUHU216HW,2013-03-20 23:34:00,
2013-03-20 18:40:00,24.3,9.5,30.03,NNW,338,2.4,5.9,53,0.00,,,0.00,WUHU216HW,2013-03-20 23:40:00,
2013-03-20 18:45:00,24.3,10.0,30.03,WSW,257,4.6,5.4,54,0.00,,,0.00,WUHU216HW,2013-03-20 23:45:00,
2013-03-20 18:50:00,24.1,10.2,30.03,WNW,289,5.6,7.6,55,0.00,,,0.00,WUHU216HW,2013-03-20 23:50:00,
2013-03-20 18:55:00,24.1,9.8,30.03,WSW,248,2.2,7.6,54,0.00,,,0.00,WUHU216HW,2013-03-20 23:55:00,
2013-03-20 19:00:00,24.1,11.0,30.03,West,270,8.0,11.5,57,0.00,,,0.00,WUHU216HW,2013-03-21 00:00:00,
2013-03-20 19:05:00,23.8,11.1,30.03,WSW,248,5.6,11.5,58,0.00,,,0.00,WUHU216HW,2013-03-21 00:05:00,
2013-03-20 19:10:00,23.6,10.9,30.03,NW,315,3.5,8.0,58,0.00,,,0.00,WUHU216HW,2013-03-21 00:10:00,
2013-03-20 19:15:00,23.8,10.7,30.03,NW,315,5.4,5.4,57,0.00,,,0.00,WUHU216HW,2013-03-21 00:15:00,
2013-03-20 19:20:00,23.6,11.4,30.03,North,0,3.0,6.7,59,0.00,,,0.00,WUHU216HW,2013-03-21 00:20:00,
2013-03-20 19:25:00,23.4,11.2,30.03,SW,225,8.3,8.3,59,0.00,,,0.00,WUHU216HW,2013-03-21 00:25:00,
2013-03-20 19:30:00,23.6,11.4,30.03,NNW,338,3.0,8.3,59,0.00,,,0.00,WUHU216HW,2013-03-21 00:30:00,
2013-03-20 19:35:00,23.4,11.2,30.03,WNW,293,4.8,8.3,59,0.00,,,0.00,WUHU216HW,2013-03-21 00:35:00,
2013-03-20 19:40:00,23.4,11.2,30.03,West,270,4.1,6.7,59,0.00,,,0.00,WUHU216HW,2013-03-21 00:40:00,
2013-03-20 19:45:00,23.4,11.2,30.03,West,276,3.9,6.5,59,0.00,,,0.00,WUHU216HW,2013-03-21 00:45:00,
2013-03-20 19:50:00,23.4,11.2,30.03,WNW,282,3.9,6.5,59,0.00,,,0.00,WUHU216HW,2013-03-21 00:50:00,
2013-03-20 19:55:00,23.2,11.7,30.04,NW,324,3.7,8.0,61,0.00,,,0.00,WUHU216HW,2013-03-21 00:55:00,
2013-03-20 20:00:00,23.0,12.2,30.03,NW,315,5.5,8.3,63,0.00,,,0.00,WUHU216HW,2013-03-21 01:00:00,
2013-03-20 20:05:00,22.9,11.7,30.04,WNW,297,4.0,8.3,62,0.00,,,0.00,WUHU216HW,2013-03-21 01:05:00,
2013-03-20 20:10:00,22.9,11.3,30.04,WNW,299,4.6,6.7,61,0.00,,,0.00,WUHU216HW,2013-03-21 01:10:00,
2013-03-20 20:15:00,22.9,11.0,30.04,WSW,248,5.9,6.7,60,0.00,,,0.00,WUHU216HW,2013-03-21 01:15:00,
2013-03-20 20:20:00,22.9,10.6,30.04,NW,311,5.0,10.2,59,0.00,,,0.00,WUHU216HW,2013-03-21 01:20:00,
2013-03-20 20:25:00,22.7,10.5,30.04,West,270,4.6,10.2,59,0.00,,,0.00,WUHU216HW,2013-03-21 01:25:00,
2013-03-20 20:30:00,22.9,10.6,30.04,North,0,3.2,6.5,59,0.00,,,0.00,WUHU216HW,2013-03-21 01:30:00,
2013-03-20 20:35:00,22.7,10.5,30.04,NW,315,5.2,5.6,59,0.00,,,0.00,WUHU216HW,2013-03-21 01:35:00,
2013-03-20 20:40:00,22.9,10.6,30.04,West,266,1.7,5.2,59,0.00,,,0.00,WUHU216HW,2013-03-21 01:40:00,
2013-03-20 20:45:00,22.7,9.6,30.04,West,264,6.5,8.6,57,0.00,,,0.00,WUHU216HW,2013-03-21 01:45:00,
2013-03-20 20:50:00,22.7,9.6,30.04,NW,315,4.8,8.6,57,0.00,,,0.00,WUHU216HW,2013-03-21 01:50:00,
2013-03-20 20:55:00,22.5,9.1,30.04,NNW,338,6.1,6.5,56,0.00,,,0.00,WUHU216HW,2013-03-21 01:55:00,
2013-03-20 21:00:00,22.3,8.9,30.03,NNW,338,4.1,7.2,56,0.00,,,0.00,WUHU216HW,2013-03-21 02:00:00,
2013-03-20 21:05:00,22.3,8.5,30.04,West,270,5.6,8.0,55,0.00,,,0.00,WUHU216HW,2013-03-21 02:05:00,
2013-03-20 21:09:00,22.3,8.5,30.03,West,270,4.3,8.0,55,0.00,,,0.00,WUHU216HW,2013-03-21 02:09:00,
2013-03-20 21:14:00,22.1,8.4,30.03,NW,320,3.0,8.6,55,0.00,,,0.00,WUHU216HW,2013-03-21 02:14:00,
2013-03-20 21:19:00,22.3,8.5,30.03,WNW,300,3.4,8.6,55,0.00,,,0.00,WUHU216HW,2013-03-21 02:19:00,
2013-03-20 21:24:00,22.1,8.4,30.03,NW,307,3.3,7.2,55,0.00,,,0.00,WUHU216HW,2013-03-21 02:24:00,
2013-03-20 21:29:00,22.1,8.4,30.03,NW,318,3.2,5.6,55,0.00,,,0.00,WUHU216HW,2013-03-21 02:29:00,
2013-03-20 21:34:00,22.1,8.4,30.03,NW,315,3.5,6.1,55,0.00,,,0.00,WUHU216HW,2013-03-21 02:34:00,
2013-03-20 21:39:00,22.1,8.4,30.03,NW,315,3.0,6.1,55,0.00,,,0.00,WUHU216HW,2013-03-21 02:39:00,
2013-03-20 21:44:00,22.1,8.4,30.03,WNW,296,4.4,5.6,55,0.00,,,0.00,WUHU216HW,2013-03-21 02:44:00,
2013-03-20 21:49:00,22.1,8.4,30.03,WSW,248,6.7,7.2,55,0.00,,,0.00,WUHU216HW,2013-03-21 02:49:00,
2013-03-20 21:54:00,22.0,8.6,30.03,NW,315,1.6,7.2,56,0.00,,,0.00,WUHU216HW,2013-03-21 02:54:00,
2013-03-20 21:59:00,22.1,9.1,30.03,NW,318,3.9,6.7,57,0.00,,,0.00,WUHU216HW,2013-03-21 02:59:00,
2013-03-20 22:04:00,22.0,9.0,30.03,WNW,302,2.5,5.6,57,0.00,,,0.00,WUHU216HW,2013-03-21 03:04:00,
2013-03-20 22:09:00,22.0,9.4,30.03,NW,315,4.8,5.6,58,0.00,,,0.00,WUHU216HW,2013-03-21 03:09:00,
2013-03-20 22:14:00,22.0,9.8,30.03,NW,315,3.0,5.9,59,0.00,,,0.00,WUHU216HW,2013-03-21 03:14:00,
2013-03-20 22:19:00,21.8,11.8,30.03,NW,315,7.6,7.6,65,0.00,,,0.00,WUHU216HW,2013-03-21 03:19:00,
2013-03-20 22:24:00,21.2,11.6,30.03,NW,304,3.8,7.6,66,0.00,,,0.00,WUHU216HW,2013-03-21 03:24:00,
2013-03-20 22:29:00,21.1,12.1,30.03,NW,313,3.3,8.9,68,0.00,,,0.00,WUHU216HW,2013-03-21 03:29:00,
2013-03-20 22:34:00,20.9,11.9,30.03,NW,315,2.4,8.9,68,0.00,,,0.00,WUHU216HW,2013-03-21 03:34:00,
2013-03-20 22:39:00,20.9,12.2,30.03,WNW,293,6.7,6.7,69,0.00,,,0.00,WUHU216HW,2013-03-21 03:39:00,
2013-03-20 22:44:00,21.1,12.4,30.03,NW,315,2.4,7.8,69,0.00,,,0.00,WUHU216HW,2013-03-21 03:44:00,
2013-03-20 22:49:00,21.2,12.6,30.03,WNW,300,2.2,7.8,69,0.00,,,0.00,WUHU216HW,2013-03-21 03:49:00,
2013-03-20 22:55:00,21.2,11.6,30.03,WNW,298,3.3,6.7,66,0.00,,,0.00,WUHU216HW,2013-03-21 03:55:00,
2013-03-20 23:00:00,21.2,11.3,30.03,NNW,338,3.0,6.7,65,0.00,,,0.00,WUHU216HW,2013-03-21 04:00:00,
2013-03-20 23:05:00,21.2,10.3,30.03,NW,315,6.1,7.0,62,0.00,,,0.00,WUHU216HW,2013-03-21 04:05:00,
2013-03-20 23:10:00,21.2,9.9,30.02,WNW,293,5.6,10.7,61,0.00,,,0.00,WUHU216HW,2013-03-21 04:10:00,
2013-03-20 23:15:00,21.2,9.1,30.03,NW,315,4.1,10.7,59,0.00,,,0.00,WUHU216HW,2013-03-21 04:15:00,
2013-03-20 23:20:00,21.2,9.1,30.03,WNW,295,2.9,9.1,59,0.00,,,0.00,WUHU216HW,2013-03-21 04:20:00,
2013-03-20 23:25:00,21.2,8.3,30.03,NW,313,3.7,6.1,57,0.00,,,0.00,WUHU216HW,2013-03-21 04:25:00,
2013-03-20 23:30:00,21.2,8.3,30.02,NW,312,4.4,9.4,57,0.00,,,0.00,WUHU216HW,2013-03-21 04:30:00,
2013-03-20 23:35:00,21.1,8.1,30.03,NW,309,2.4,9.4,57,0.00,,,0.00,WUHU216HW,2013-03-21 04:35:00,
2013-03-20 23:40:00,21.1,7.3,30.03,NNW,345,5.5,10.4,55,0.00,,,0.00,WUHU216HW,2013-03-21 04:40:00,
2013-03-20 23:45:00,21.1,7.8,30.02,NW,315,8.6,10.4,56,0.00,,,0.00,WUHU216HW,2013-03-21 04:45:00,
2013-03-20 23:50:00,21.1,7.3,30.02,NW,315,7.6,8.6,55,0.00,,,0.00,WUHU216HW,2013-03-21 04:50:00,
2013-03-20 23:55:00,20.9,7.1,30.02,North,353,4.0,8.6,55,0.00,,,0.00,WUHU216HW,2013-03-21 04:55:00,